Aérodrome :
LOGIN :

S'inscrire | Disclaimer

   EN    FR    IT 

 










Légende :    VFR   VFR Marginal   IFR   IFR Intensif   IFR Très Intensif
Visi : 
Plafond : 
>= 8 km
>= 3000ft
5 à 8 km
1000 à 3000 ft
1500m à 5 km
500 à 1000 ft
800 à 1500m
200 à 500 ft
< 800m
< 200 ft
Symboles :   Orages  Brouillard  Fortes neiges  Fortes précipitations  Vent > 20 kt
SIGMETs :   Divers  Orages  Givrage  Turbulence  Onde Orograph.  Cendres Volcan.







- Altitude de l'aérodrome : 788 ft
- Code IATA : DCM
- Voir les cartes d'approche


LFCK - Castres-Mazamet

DERNIER METAR :
  • 211400Z AUTO 28005KT 230V330 CAVOK 18/04 Q1028 TEMPO 14010KT

METARs EXPIRÉS :
  • 211330Z AUTO 26005KT CAVOK 17/05 Q1028 TEMPO 14010KT
  • 211300Z AUTO 27005KT CAVOK 17/05 Q1028 TEMPO 14010KT
  • 211230Z AUTO 27005KT CAVOK 16/05 Q1029 TEMPO 14010KT
  • 211200Z AUTO 28005KT 250V310 CAVOK 15/03 Q1029 NOSIG
  • 211130Z AUTO 29005KT CAVOK 14/03 Q1029 NOSIG

TAF TAF LFCK
Valide du 21 à 12h jusqu'au 21 à 21h UTC


211100Z 2112/2121 VRB02KT CAVOK
TEMPO 2114/2118 14010KT
Pas de NOTAMs connus pour ce terrain.



MET'MAP, la Météo Aéronautique d'un coup d'oeil ! - Copyright ORBIFLY Décembre 2007 - Disclaimer

ORBIFLY MET'MAP TEAM :

Programmation & Développement : Alexandra Zaïnal
Conception & Développement : Baudouin d'Aumeries
Co-Programmation & Développement : Marc-Olivier Méhu
Soutien technique & logistique : Manuel Goepfert

Contact : metmap@orbifly.com




SOURCES & CREDITS :

   NOAA